DELTA 1 DEB, 40769

Orbit data source: Space-Track

DELTA 1 DEB, 40769 is space debris in SSO originally from a launch on Thu, 29 Jul 1976 UTC launched from the Air Force Western Test Range (AFWTR). Debris objects in space refer to the collection of defunct objects orbiting the Earth. Examples of debris include non-operational satellites, rocket bodies, and fragments generated from explosions, collisions, or faulty payload assembly.

Loading next visibility...
Identifier
40769, 1976-077GN
Orbit
SSO
Country
Flag of USUS
Related business
Manufacturer
Unknown
Mission
Spacecraft
Bus & Motor
Unknown
Mass
Unknown
Launch date (UTC)
1976-07-29 (50 years ago)
Launch vehicle
Unknown
Launch site
Air Force Western Test Range (AFWTR)
Object type
Payload
Rocket body
Debris
Shape & HBR
Unknown shape, 0.1 m
Radar Cross Section
Medium (>0.1 m² and <1 m²)

Expand to show TLE details & history
Last TLE update: 1 day ago

TLE from 1 day ago
0 DELTA 1 DEB
1 40769U 76077GN  26255.38991550  .00000048  00000-0  67198-3 0  9999
2 40769 102.0752 230.4526 0006900 219.6630 140.3931 12.42741650 77679
Epoch: 2026-09-12T09:21Z
TLE epoch observation values (Epoch: 2026-09-12T09:21:28.699Z)
Latitude
0.00003°
Longitude
98.68341°
Altitude
1,501.74 km
Speed
7.112 km/s
True Right ascension
15h 21m 48s
True Declination
0° 00' 00"
Sunlit
Object was in daylight at epoch
Visualization orbit readout
Latitude
Unknown
Longitude
Unknown
Altitude
Unknown
Speed
Unknown
Apparent Right ascension
Unknown
Apparent Declination
Unknown
Sunlit
N/A
Visualization observer readout
Local Sidereal Time
05:58:29
Azimuth
Unknown
Elevation
Unknown
Doppler factor
Unknown
Orbital elements
Apogee altitude
1,498.009 km
Perigee altitude
1,487.147 km
Semi-major axis
7,870.715 km
Eccentricity
0.00069
Inclination
102.0752°
RAAN
230.4526°
Arg. of periapsis
219.663°
True anomaly
140.44347°
Mean anomaly
140.3931°
Eccentric anomaly
140.41829°
Mean motion
3.10829 °/min
Orbital period
115.82 mins
BSTAR
0.00067198
Loading maneuver chart data...
Computing Atmospheric mass density...
Loading historical data...
Loading historical data...
Loading historical data...
Loading historical data...
Loading historical data...
Loading historical data...
Loading historical data...

Documentation

Showing up to 5 results
|